Location: Forcarei
(42.5879°N, 8.3520°W)
Time: 15:43:27
(UTC+02:00)

ISS - Visible Passes

Search period start: 21 September 2018 00:00
Search period end: 01 October 2018 00:00
Orbit: 403 x 408 km, 51.6° (Epoch: 21 September)

Date Brightness Start Highest point End Pass type
(mag) Time Alt. Az. Time Alt. Az. Time Alt. Az.
21 Sep -1.9 21:15:09 10° SSE 21:16:54 14° SE 21:17:51 12° ESE visible
21 Sep -1.2 22:49:43 10° WSW 22:50:35 17° WSW 22:50:35 17° WSW visible
22 Sep -3.8 21:57:57 10° SW 22:01:11 59° SE 22:01:34 54° ESE visible
23 Sep -2.9 21:06:28 10° SSW 21:09:25 31° SE 21:12:20 10° ENE visible
23 Sep -1.9 22:42:47 10° W 22:45:03 31° WNW 22:45:03 31° WNW visible
24 Sep -3.4 21:50:40 10° WSW 21:53:56 60° NNW 21:55:36 25° NE visible
25 Sep -3.9 20:58:45 10° SW 21:02:02 77° SE 21:05:20 10° ENE visible
25 Sep -1.7 22:36:05 10° WNW 22:38:42 24° NNW 22:38:42 24° NNW visible
26 Sep -2.2 21:43:45 10° W 21:46:46 32° NNW 21:48:59 15° NE visible
27 Sep -3.0 20:51:33 10° WSW 20:54:45 49° NNW 20:57:58 10° NE visible
27 Sep -1.4 22:29:26 10° NW 22:31:50 18° N 22:31:50 18° N visible
28 Sep -1.7 21:37:01 10° WNW 21:39:40 22° NNW 21:41:57 12° NE visible
29 Sep -2.1 20:44:38 10° W 20:47:33 28° NNW 20:50:29 10° NE visible
29 Sep -1.3 22:22:35 10° NW 22:24:40 17° N 22:24:40 17° N visible
30 Sep -1.5 21:30:17 10° NW 21:32:36 18° N 21:34:41 11° NE visible
